[[{"header":{"parameterUnit":"m.s-1","parameterCategory":1,"la1":30.2991,"la2":30.254,"lo1":-89.0895,"lo2":-89.0444,"dy":0.0017,"dx":0.0017,"nx":28,"ny":28,"refTime":"2025-08-27T21:00:00:Z","depth":0,"parameterNumber":2,"parameterNumberName":"U-component_of_WINDS"},"data":[0,0,0,0,0,0,0,0,0,0,0,0,0,0,0,0,0,0,0,0,0,0,0,0,0,0,0,0,0,0,0,0,0,0,0,0,0,0,0,0,0,0,0,0,0,0,0,0,0,0,0,0,0,0,0,0,0,0,-2.7585,-2.7586,0,-2.7613,-2.7613,-2.7613,-2.7522,-2.7519,-2.7516,-2.7514,-2.7544,-2.7548,-2.7551,0,0,0,0,0,0,0,0,0,0,0,0,0,-2.7457,-2.7459,-2.7585,-2.7586,-2.7586,-2.7612,-2.7613,-2.7613,-2.7522,-2.7519,-2.7515,-2.7512,-2.7543,-2.7547,-2.7551,0,0,0,0,0,0,0,0,0,0,0,0,0,-2.7501,-2.746,-2.7585,-2.7544,-2.754,-2.7612,-2.7613,-2.7613,-2.7523,-2.7519,-2.7515,-2.7511,-2.7542,-2.7547,-2.7552,-2.7666,0,0,-2.7567,-2.757,0,0,0,0,0,0,0,0,-2.7499,-2.7506,-2.7549,-2.7547,-2.7543,-2.7559,-2.7579,-2.7631,-2.7524,-2.753,-2.7513,-2.7509,-2.7553,-2.7557,-2.7571,-2.7668,-2.7669,-2.7568,-2.7571,-2.7573,-2.7575,0,0,0,0,0,0,0,-2.7496,-2.7504,-2.7596,-2.755,-2.7546,-2.7524,-2.7526,-2.7588,-2.7564,-2.7529,-2.7522,-2.7526,-2.755,-2.7566,-2.7571,-2.767,-2.7568,-2.7572,-2.7575,-2.7577,-2.7863,-2.7867,0,0,0,0,0,0,-2.7498,-2.7502,-2.7595,-2.7597,-2.751,-2.753,-2.7532,-2.7558,-2.7563,-2.756,-2.753,-2.7522,-2.756,-2.7565,-2.7572,-2.7707,-2.7573,-2.7578,-2.7581,-2.7858,-2.7864,-2.7869,0,0,0,0,0,0,-2.7495,-2.7507,-2.7594,-2.7548,-2.7557,-2.7537,-2.7567,-2.7561,-2.7577,-2.7564,-2.756,-2.7551,-2.7557,-2.7565,-2.7644,-2.7707,-2.758,-2.7585,-2.7853,-2.786,-2.7866,-2.7979,0,0,0,0,0,0,-2.7492,-2.7507,-2.7549,-2.7549,-2.756,-2.7665,-2.7571,-2.7565,-2.7586,-2.7576,-2.7582,-2.758,-2.7554,-2.7637,-2.7649,-2.7712,-2.7589,-2.7847,-2.7856,-2.7864,-2.797,-2.7989,-2.8005,0,0,0,0,0,-2.7488,-2.758,-2.7552,-2.7564,-2.7613,-2.7669,-2.7675,-2.7643,-2.7591,-2.7635,-2.7626,-2.7579,-2.7698,-2.7645,-2.7658,-2.7724,-2.7843,-2.7854,-2.7864,-2.7962,-2.7985,-2.8005,0,0,0,0,0,0,-2.7589,-2.758,-2.7548,-2.7643,-2.7657,-2.7653,-2.7707,-2.7668,-2.7698,-2.7688,-2.7647,-2.765,-2.7737,-2.7738,-2.7679,-2.7836,-2.7762,-2.7775,-2.7832,-2.7854,-2.7872,-2.7871,-2.7593,0,0,0,0,0,-2.7622,-2.7668,-2.7657,-2.7742,-2.7751,-2.7728,-2.7751,-2.7725,-2.7738,-2.7744,-2.7742,-2.7757,-2.7798,-2.7826,-2.7862,-2.7969,-2.797,-2.8021,-2.8038,-2.8053,-2.8066,-2.8124,-2.8146,-2.7902,-2.7902,-2.7902,0,0,-2.7692,-2.7692,-2.7723,-2.7762,-2.777,-2.7819,-2.7734,-2.7789,-2.7825,-2.7753,-2.7827,-2.7826,-2.7841,-2.7935,-2.7976,-2.7938,-2.8133,-2.8066,-2.8078,-2.8083,-2.8136,-2.816,-2.818,-2.7909,-2.7908,-2.7907,0,0,-2.7844,-2.7848,-2.792,-2.7929,-2.7942,-2.7926,-2.7944,-2.7945,-2.7942,-2.8016,-2.7963,-2.8006,-2.8076,-2.809,-2.8106,-2.8263,-2.8222,-2.8276,-2.837,-2.8427,-2.8446,-2.8463,-2.8521,-2.8542,-2.8288,-2.8288,-2.8289,0,-2.7929,-2.8,-2.7962,-2.8021,-2.804,-2.7976,-2.8049,-2.8061,-2.8086,-2.8101,-2.8058,-2.8146,-2.8152,-2.8248,-2.8287,-2.8301,-2.8321,-2.8276,-2.8446,-2.8463,-2.8478,-2.8533,-2.8555,-2.8295,-2.8294,-2.8294,-2.8293,0,-2.8104,-2.8154,-2.8211,-2.8236,-2.8261,-2.8327,-2.8301,-2.8331,-2.8303,-2.8292,-2.8369,-2.8373,-2.841,-2.843,-2.8403,-2.8524,-2.85,-2.8453,-2.8378,-2.8509,-2.856,-2.858,-2.8305,-2.8302,-2.83,-2.8299,0,0,-2.8322,-2.8325,-2.8347,-2.8358,-2.8367,-2.8406,-2.8469,-2.8504,-2.8532,-2.8551,-2.8605,-2.8666,-2.8622,-2.864,-2.8614,-2.8664,-2.8791,-2.861,-2.861,-2.8645,-2.8925,-2.8963,-2.8987,-2.8762,-2.8766,-2.8769,-2.8925,0,-2.8473,-2.858,-2.8548,-2.8657,-2.8704,-2.8644,-2.8699,-2.8712,-2.8703,-2.8742,-2.8733,-2.8778,-2.8715,-2.8726,-2.8773,-2.8765,-2.8847,-2.8753,-2.8813,-2.8816,-2.8813,-2.9013,-2.9053,-2.9199,-2.8944,-2.8947,-2.895,0,-2.8663,-2.8689,-2.8803,-2.8806,-2.8824,-2.8874,-2.8905,-2.8942,-2.8955,-2.8946,-2.8967,-2.893,-2.8994,-2.8918,-2.9006,-2.8943,-2.8966,-2.8966,-2.8971,-2.8977,-2.8892,-2.9027,-2.9245,-2.9268,-2.898,-2.8978,-2.8976,0,-2.8813,-2.8876,-2.8953,-2.8964,-2.8968,-2.9005,-2.9009,-2.9018,-2.9042,-2.9068,-2.9084,-2.9118,-2.9137,-2.9165,-2.914,-2.9086,-2.9232,-2.9153,-2.9228,-2.9229,-2.9263,-2.9261,-2.949,-2.9275,-2.9274,-2.9274,-2.9273,0,-2.8985,-2.9058,-2.902,-2.9068,-2.9147,-2.911,-2.919,-2.9187,-2.9196,-2.9242,-2.9192,-2.9237,-2.9199,-2.9242,-2.9222,-2.9299,-2.9308,-2.9303,-2.9297,-2.9309,-2.931,-2.9324,-2.9314,-2.928,-2.9278,-2.9277,-2.9276,0,-2.9167,-2.9144,-2.9224,-2.9221,-2.9222,-2.9281,-2.928,-2.9324,-2.9311,-2.9371,-2.9383,-2.9364,-2.9411,-2.9388,-2.9437,-2.9424,-2.9524,-2.9503,-2.9519,-2.9515,-2.9591,-2.9585,-2.9839,-2.9871,-2.9633,-2.9635,-2.9637,0,-2.9279,-2.9333,-2.9337,-2.9364,-2.9371,-2.9415,-2.9439,-2.9404,-2.9431,-2.9451,-2.9494,-2.9536,-2.9568,-2.9646,-2.9638,-2.9676,-2.9657,-2.9743,-2.9662,-2.9673,-2.9661,-2.9659,-2.9665,-2.976,-2.9763,-2.9765,-2.9767,0,-2.9482,-2.9468,-2.9504,-2.9537,-2.9566,-2.959,-2.961,-2.9636,-2.9601,-2.9635,-2.9682,-2.9707,-2.9757,-2.98,-2.9833,-2.9838,-2.9798,-2.9792,-2.9812,-2.9825,-2.9833,-2.9831,-2.9566,-2.9787,-2.9785,-2.9783,-2.9782,-2.9782,-2.9633,-2.9679,-2.9689,-2.9731,-2.9742,-2.9762,-2.9804,-2.9796,-2.9835,-2.9872,-2.9849,-2.9905,-2.9918,-2.9958,-2.9968,-3.0012,-2.9978,-3.0006,-3.0014,-3.0022,-3.0033,-2.9824,-3.0018,-3.0017,-3.0017,-3.0016,-3.0016,0,-2.9835,-2.9838,-2.9877,-2.9906,-2.994,-2.9897,-2.9917,-2.9949,-2.9998,-3.0013,-3.0046,-3.0101,-3.0143,-3.0137,-3.0176,-3.0213,-3.0195,-3.0224,-3.0222,-3.0224,-3.006,-3.004,-3.0237,-3.0237,-3.0237,-3.0237,-3.0237,-3.0237,-2.9944,-3.002,-3.0008,-3.0089,-3.0091,-3.0145,-3.0161,-3.0179,-3.0191,-3.0254,-3.0289,-3.0284,-3.0292,-3.0331,-3.0368,-3.0365,-3.0383,-3.0419,-3.041,-3.0257,-3.0236,-3.0215,-3.0196,-3.0423,-3.0423,-3.0571,-3.0572,-3.0574]},{"header":{"parameterUnit":"m.s-1","parameterCategory":1,"la1":30.2991,"la2":30.254,"lo1":-89.0895,"lo2":-89.0444,"dy":0.0017,"dx":0.0017,"nx":28,"ny":28,"refTime":"2025-08-27T21:00:00:Z","depth":0,"parameterNumber":3,"parameterNumberName":"V-component_of_WINDS"},"data":[0,0,0,0,0,0,0,0,0,0,0,0,0,0,0,0,0,0,0,0,0,0,0,0,0,0,0,0,0,0,0,0,0,0,0,0,0,0,0,0,0,0,0,0,0,0,0,0,0,0,0,0,0,0,0,0,0,0,-0.6053,-0.6053,0,-0.6073,-0.6073,-0.6074,-0.6044,-0.6043,-0.6042,-0.6041,-0.6066,-0.6068,-0.6069,0,0,0,0,0,0,0,0,0,0,0,0,0,-0.5993,-0.5994,-0.6053,-0.6053,-0.6053,-0.6073,-0.6073,-0.6074,-0.6044,-0.6043,-0.6042,-0.6041,-0.6065,-0.6067,-0.6069,0,0,0,0,0,0,0,0,0,0,0,0,0,-0.6017,-0.5994,-0.6053,-0.6041,-0.604,-0.6073,-0.6073,-0.6074,-0.6045,-0.6043,-0.6041,-0.604,-0.6065,-0.6067,-0.607,-0.6116,0,0,-0.6077,-0.6078,0,0,0,0,0,0,0,0,-0.6015,-0.6019,-0.6043,-0.6042,-0.6041,-0.6054,-0.6061,-0.6088,-0.6045,-0.6043,-0.6041,-0.6039,-0.6064,-0.6066,-0.6073,-0.6117,-0.6118,-0.6077,-0.6079,-0.608,-0.6081,0,0,0,0,0,0,0,-0.6014,-0.6018,-0.6061,-0.6043,-0.6042,-0.6036,-0.6038,-0.6066,-0.6062,-0.6043,-0.6041,-0.6044,-0.6063,-0.6071,-0.6074,-0.6119,-0.6077,-0.6079,-0.6081,-0.6082,-0.6203,-0.6205,0,0,0,0,0,0,-0.6013,-0.6017,-0.606,-0.6062,-0.6024,-0.6038,-0.604,-0.6052,-0.6062,-0.6062,-0.6045,-0.6042,-0.6068,-0.6071,-0.6075,-0.6131,-0.608,-0.6082,-0.6084,-0.6201,-0.6203,-0.6205,0,0,0,0,0,0,-0.6012,-0.6017,-0.606,-0.6039,-0.6043,-0.6041,-0.6054,-0.6053,-0.6061,-0.6063,-0.6062,-0.6054,-0.6067,-0.6071,-0.6106,-0.6131,-0.6083,-0.6085,-0.6199,-0.6202,-0.6204,-0.6243,0,0,0,0,0,0,-0.601,-0.6017,-0.6034,-0.6039,-0.6045,-0.609,-0.6056,-0.6055,-0.6065,-0.6062,-0.6071,-0.6071,-0.6066,-0.6102,-0.6108,-0.6134,-0.6087,-0.6197,-0.62,-0.6203,-0.624,-0.6247,-0.6253,0,0,0,0,0,-0.6008,-0.6045,-0.6035,-0.604,-0.6066,-0.6091,-0.6095,-0.6086,-0.6067,-0.6085,-0.6086,-0.6071,-0.6127,-0.6106,-0.6113,-0.6139,-0.6195,-0.6199,-0.6203,-0.6237,-0.6246,-0.6253,0,0,0,0,0,0,-0.6044,-0.6045,-0.6034,-0.6074,-0.6082,-0.6086,-0.6108,-0.6096,-0.6111,-0.6108,-0.6097,-0.61,-0.6138,-0.6141,-0.6118,-0.6185,-0.6158,-0.6164,-0.6182,-0.619,-0.6197,-0.6196,-0.6089,0,0,0,0,0,-0.6056,-0.6076,-0.6076,-0.6111,-0.6116,-0.6111,-0.6122,-0.6115,-0.6124,-0.6128,-0.6132,-0.6142,-0.6162,-0.6176,-0.6194,-0.6239,-0.6242,-0.6261,-0.6268,-0.6273,-0.6279,-0.6304,-0.6313,-0.6218,-0.6218,-0.6218,0,0,-0.6083,-0.6086,-0.6099,-0.6118,-0.6124,-0.6146,-0.6115,-0.6139,-0.6156,-0.6132,-0.6165,-0.6168,-0.618,-0.622,-0.6238,-0.6225,-0.6305,-0.6278,-0.6282,-0.6285,-0.6309,-0.6318,-0.6326,-0.6221,-0.622,-0.622,0,0,-0.6142,-0.6145,-0.6175,-0.6181,-0.619,-0.6186,-0.6194,-0.6199,-0.62,-0.6232,-0.6215,-0.6235,-0.627,-0.6279,-0.6288,-0.6349,-0.6337,-0.6355,-0.6391,-0.6416,-0.6424,-0.643,-0.6454,-0.6462,-0.6361,-0.6361,-0.6361,0,-0.6174,-0.6205,-0.6192,-0.6218,-0.6227,-0.6205,-0.6236,-0.6243,-0.6258,-0.6266,-0.625,-0.6292,-0.6298,-0.6341,-0.6356,-0.6364,-0.6373,-0.6356,-0.6423,-0.643,-0.6436,-0.6458,-0.6467,-0.6363,-0.6363,-0.6362,-0.6362,0,-0.6245,-0.6266,-0.6289,-0.6303,-0.6315,-0.6343,-0.6336,-0.635,-0.6341,-0.6339,-0.6373,-0.6379,-0.6399,-0.6408,-0.64,-0.645,-0.6441,-0.6424,-0.6397,-0.6447,-0.6468,-0.6477,-0.6366,-0.6366,-0.6365,-0.6364,0,0,-0.633,-0.6334,-0.6344,-0.635,-0.6357,-0.6374,-0.6401,-0.6419,-0.6432,-0.6443,-0.6466,-0.6495,-0.6479,-0.649,-0.6482,-0.6504,-0.6554,-0.6484,-0.6484,-0.6499,-0.6611,-0.6626,-0.6636,-0.6545,-0.6546,-0.6547,-0.6611,0,-0.639,-0.6436,-0.6425,-0.6471,-0.6492,-0.647,-0.6494,-0.6502,-0.6501,-0.6519,-0.6518,-0.654,-0.6516,-0.6523,-0.6542,-0.6544,-0.6577,-0.6539,-0.6569,-0.657,-0.6569,-0.6646,-0.6662,-0.6722,-0.6619,-0.662,-0.6621,0,-0.6467,-0.6479,-0.6527,-0.6531,-0.654,-0.6561,-0.6577,-0.6594,-0.6602,-0.66,-0.6611,-0.66,-0.6628,-0.6598,-0.6638,-0.6612,-0.6624,-0.6626,-0.6628,-0.6633,-0.6601,-0.6655,-0.674,-0.675,-0.6634,-0.6633,-0.6632,0,-0.6527,-0.6555,-0.6587,-0.6593,-0.6598,-0.6614,-0.6617,-0.6624,-0.6636,-0.6649,-0.6657,-0.6674,-0.6684,-0.6698,-0.6692,-0.6671,-0.6733,-0.6703,-0.6734,-0.6735,-0.6751,-0.675,-0.6841,-0.6754,-0.6754,-0.6754,-0.6754,0,-0.6597,-0.6627,-0.6614,-0.6635,-0.6669,-0.6656,-0.669,-0.6691,-0.6697,-0.6718,-0.67,-0.672,-0.6709,-0.6729,-0.6724,-0.6759,-0.6763,-0.6764,-0.6763,-0.6767,-0.6767,-0.6776,-0.6773,-0.6756,-0.6756,-0.6755,-0.6755,0,-0.667,-0.6662,-0.6697,-0.6698,-0.6699,-0.6724,-0.6726,-0.6746,-0.6742,-0.6769,-0.6775,-0.6771,-0.6793,-0.6787,-0.6812,-0.6809,-0.6853,-0.6845,-0.685,-0.6849,-0.6881,-0.6879,-0.6983,-0.6997,-0.6899,-0.69,-0.6901,0,-0.6717,-0.6739,-0.6743,-0.6755,-0.6759,-0.6779,-0.679,-0.6778,-0.679,-0.6801,-0.682,-0.684,-0.6856,-0.6893,-0.6894,-0.6912,-0.6907,-0.6942,-0.691,-0.6913,-0.691,-0.6909,-0.6912,-0.6949,-0.695,-0.6951,-0.6952,0,-0.68,-0.6795,-0.6811,-0.6826,-0.6839,-0.6851,-0.6861,-0.6872,-0.686,-0.6876,-0.6898,-0.691,-0.6934,-0.6956,-0.6973,-0.6977,-0.6964,-0.6961,-0.697,-0.6976,-0.6978,-0.6979,-0.687,-0.696,-0.6959,-0.6958,-0.6958,-0.6958,-0.6863,-0.6883,-0.6888,-0.6907,-0.6912,-0.6922,-0.694,-0.6939,-0.6956,-0.6975,-0.6966,-0.6992,-0.7,-0.7022,-0.7028,-0.7049,-0.7036,-0.7048,-0.7052,-0.7056,-0.706,-0.6973,-0.7052,-0.7052,-0.7052,-0.7051,-0.7051,0,-0.6948,-0.695,-0.6967,-0.698,-0.6995,-0.6978,-0.6988,-0.7002,-0.7025,-0.7033,-0.7048,-0.7074,-0.7094,-0.7095,-0.7114,-0.7131,-0.7125,-0.7137,-0.7137,-0.7138,-0.707,-0.7062,-0.7141,-0.7141,-0.7141,-0.7141,-0.7141,-0.7141,-0.6994,-0.7026,-0.7022,-0.7057,-0.7059,-0.7083,-0.709,-0.71,-0.7106,-0.7135,-0.7151,-0.7151,-0.7156,-0.7176,-0.7194,-0.7194,-0.7203,-0.7217,-0.7215,-0.7152,-0.7143,-0.7135,-0.7127,-0.7219,-0.7219,-0.7282,-0.7282,-0.7283]}]]